Starlink 32353

operational
NORAD ID: 61587 Int'l Des: 2024-187 Owner: SPXS Country: US Constellation: starlink
LEOCIRCULAR

About Starlink 32353

Description loading...

Live Position

Loading 3D Globe...

Upcoming Passes

Altitude History

Altitude vs Time

uPlot chart will show altitude changes over time

Two-Line Element Set

1 61587U 24187P 25352.62767587 .00012244 00000-0 42491-3 0 9990
2 61587 53.1588 81.4839 0000920 92.0341 268.0765 15.30194336 66610
Epoch: Dec 18, 2025 • Age: 15 hours

Current Status

Altitude 475.3 km
Velocity 7.63 km/s
Sub-Earth Point 19.14°N, 67.79°E
Launch Date Oct 18, 2024
Age 1.1 years
Type internet

Technical Details

Classification Payload
Mass 730.00 kg
Dry Mass 700.00 kg
Total Mass 730.00 kg
Length 0.30 m
Diameter 4.10 m
Span 29.00 m
Shape Box + pan
Manufacturer SPXS
Bus Type Starlink V2M
Phase Status In Orbit
Owner/State SPXS/US

Large Constellations

Loading constellations...